WetterOnline ( http://www.wetteronline.de )

Wetter aktuell Berus

Aktuelles Wetter: Berus (367m)

6-stündlich | Neueste Meldungen
Ortszeit Temperatur Wetter
Mo, 22.01. 7:00 4.5° C Nebel
Mo, 22.01. 1:00 0.6° C leichter Regen
So, 21.01. 19:00 2.0° C bewölkt
So, 21.01. 13:00 2.5° C wolkig
So, 21.01. 7:00 0.6° C bewölkt
So, 21.01. 1:00 1.4° C bedeckt
Sa, 20.01. 19:00 1.4° C Sprühregen
Sa, 20.01. 13:00 1.6° C leichter Regen
Ortszeit Temperatur Wetter
Mo, 22.01. 7:00 4.5° C Nebel
Mo, 22.01. 6:50 4.5° C Nebel
Mo, 22.01. 6:40 2.4° C Sprühregen
Mo, 22.01. 6:30 3.2° C Nebel
Mo, 22.01. 6:20 3.2° C Sprühregen
Mo, 22.01. 6:10 2.4° C Sprühregen
Mo, 22.01. 6:00 2.3° C Sprühregen
Mo, 22.01. 5:30 2.2° C Sprühregen
Mo, 22.01. 5:00 1.2° C Sprühregen
Mo, 22.01. 4:30 1.3° C Sprühregen
Mo, 22.01. 4:00 1.0° C Sprühregen
Ortszeit Relative Feuchte Sichtweite
Mo, 22.01. 7:00 100% 100 m
Mo, 22.01. 1:00 100% 0.2 km
So, 21.01. 19:00 85% 19 km
So, 21.01. 13:00 81% 27 km
So, 21.01. 7:00 92% 22 km
So, 21.01. 1:00 96% 14 km
Sa, 20.01. 19:00 99% 100 m
Sa, 20.01. 13:00 99% 4.7 km
Ortszeit Relative Feuchte Sichtweite
Mo, 22.01. 7:00 100% 100 m
Mo, 22.01. 6:50 100% -
Mo, 22.01. 6:40 98% -
Mo, 22.01. 6:30 100% 100 m
Mo, 22.01. 6:20 100% -
Mo, 22.01. 6:10 100% -
Mo, 22.01. 6:00 99% 0.2 km
Mo, 22.01. 5:30 100% 0.5 km
Mo, 22.01. 5:00 99% 0.2 km
Mo, 22.01. 4:30 100% 1.5 km
Mo, 22.01. 4:00 100% 0.3 km
Ortszeit Niederschlagsmenge Niederschlagsart
Mo, 22.01. 7:00 8 l/m2 in 12 Std. Regen
Mo, 22.01. 1:00 4 l/m2 in 6 Std. Schnee, Regen
So, 21.01. 19:00 0.0 l/m2 in 12 Std. -
So, 21.01. 13:00 0.0 l/m2 in 6 Std. -
So, 21.01. 7:00 2 l/m2 in 12 Std. Regen
So, 21.01. 1:00 2 l/m2 in 6 Std. Regen
Sa, 20.01. 19:00 7 l/m2 in 12 Std. Schnee, Regen
Sa, 20.01. 13:00 2 l/m2 in 6 Std. Schnee, Regen
Ortszeit Niederschlagsmenge Niederschlagsart
Mo, 22.01. 7:00 0.4 l/m2 in 1 Std. Regen
Mo, 22.01. 6:50 keine Meldung -
Mo, 22.01. 6:40 keine Meldung -
Mo, 22.01. 6:30 0.2 l/m2 in 1 Std. -
Mo, 22.01. 6:20 keine Meldung -
Mo, 22.01. 6:10 keine Meldung -
Mo, 22.01. 6:00 0.3 l/m2 in 1 Std. Regen
Mo, 22.01. 5:30 0.1 l/m2 in 1 Std. -
Mo, 22.01. 5:00 0.3 l/m2 in 1 Std. Regen
Mo, 22.01. 4:30 0.2 l/m2 in 1 Std. -
Mo, 22.01. 4:00 0.5 l/m2 in 1 Std. Regen
Ortszeit Stärke Spitze Richtung
km/h Bft. km/h Grad Sektor
Mo, 22.01. 7:00 9 2 20 250° W
Mo, 22.01. 1:00 7 2 26 140° SO
So, 21.01. 19:00 9 2 19 170° S
So, 21.01. 13:00 11 2 22 280° W
So, 21.01. 7:00 11 2 33 280° W
So, 21.01. 1:00 17 3 30 310° NW
Sa, 20.01. 19:00 6 1 41 40° NO
Sa, 20.01. 13:00 22 4 35 200° S
Ortszeit Stärke Spitze Richtung
km/h Bft. km/h Grad Sektor
Mo, 22.01. 7:00 9 2 20 250° W
Mo, 22.01. 6:50 9 2 - 250° W
Mo, 22.01. 6:40 7 2 - 260° W
Mo, 22.01. 6:30 11 2 22 230° SW
Mo, 22.01. 6:20 11 2 - 230° SW
Mo, 22.01. 6:10 9 2 - 220° SW
Mo, 22.01. 6:00 4 1 7 200° S
Mo, 22.01. 5:30 7 2 7 230° SW
Mo, 22.01. 5:00 0 0 7 - -
Mo, 22.01. 4:30 0 0 4 - -
Mo, 22.01. 4:00 2 1 6 10° N
Ortszeit Untergrenze Bedeckung Gattung
total tief tief mittel hoch
Mo, 22.01. 7:00 <30 m 8/8 8/8 - - -
Mo, 22.01. 1:00 <30 m 7/8 7/8 - - -
So, 21.01. 19:00 600 m 7/8 7/8 - - -
So, 21.01. 13:00 450 m 8/8 1/8 - - -
So, 21.01. 7:00 360 m 7/8 7/8 - - -
So, 21.01. 1:00 90 m 8/8 8/8 - - -
Sa, 20.01. 19:00 30 m 7/8 7/8 - - -
Sa, 20.01. 13:00 30 m 8/8 8/8 - - -
Ortszeit Bedeckungsgrad in Achtel und Wolkenuntergrenze
Mo, 22.01. 7:00 8(<30m)
Mo, 22.01. 6:50 8(<30m)
Mo, 22.01. 6:40 8(<30m)
Mo, 22.01. 6:30 8(<30m)
Mo, 22.01. 6:20 8(<30m)
Mo, 22.01. 6:10 8(<30m)
Mo, 22.01. 6:00 8(<30m)
Mo, 22.01. 5:30 8(<30m)
Mo, 22.01. 5:00 8(<30m)
Mo, 22.01. 4:30 7(30m)
Mo, 22.01. 4:00 8(30m)
Ortszeit Luftdruck NN (hPa) Tendenz (hPa in 3 Std.)
Mo, 22.01. 7:00 1010 - 0,2
Mo, 22.01. 1:00 1012 - 4,0
So, 21.01. 19:00 1018 - 0,4
So, 21.01. 13:00 1019 + 1,7
So, 21.01. 7:00 1014 + 4,1
So, 21.01. 1:00 1005 + 3,6
Sa, 20.01. 19:00 999 - 0,4
Sa, 20.01. 13:00 1005 - 4,5
Ortszeit Luftdruck NN (hPa) Tendenz (hPa in 3 Std.)
Mo, 22.01. 7:00 1010 - 0,2
Mo, 22.01. 6:50 1010 keine Meldung
Mo, 22.01. 6:40 1010 keine Meldung
Mo, 22.01. 6:30 1010 - 0,4
Mo, 22.01. 6:20 1010 keine Meldung
Mo, 22.01. 6:10 1010 keine Meldung
Mo, 22.01. 6:00 1010 - 0,3
Mo, 22.01. 5:30 1010 - 0,4
Mo, 22.01. 5:00 1011 - 0,8
Mo, 22.01. 4:30 1011 - 1,0
Mo, 22.01. 4:00 1011 - 1,5
Ortszeit Schneehöhe (cm)
Mo, 22.01. 7:00 0
Mo, 22.01. 1:00 0
So, 21.01. 19:00 0
So, 21.01. 13:00 0
So, 21.01. 7:00 0
So, 21.01. 1:00 0
Sa, 20.01. 19:00 0
Sa, 20.01. 13:00 0
Ortszeit Schneehöhe (cm)
Mo, 22.01. 7:00 0
Mo, 22.01. 6:50 0
Mo, 22.01. 6:40 0
Mo, 22.01. 6:30 0
Mo, 22.01. 6:20 0
Mo, 22.01. 6:10 0
Mo, 22.01. 6:00 0
Mo, 22.01. 5:30 0
Mo, 22.01. 5:00 0
Mo, 22.01. 4:30 0
Mo, 22.01. 4:00 0
Link zu dieser Seite / Seite empfehlen

Das Wetter in ...